Probability
1 1 0 0 0 0 0 0 0 0 0 0 0 0 1 2 2 1 0 0 1 2 1 0 1 0 0 0 0 0 0 0 0 0 0 0 0 0 0 0 0 0 0 0 0 0 0 0 0
1 0 0 0 0 0 0 0 0 1 1 1 0 0 1 2 2 1 1 1 2 2 1 0 1 1 1 1 1 1 0 0 0 0 0 0 0 0 0 0 0 0 0 0 0 0 0 0 0
1 0 0 0 0 0 0 0 0 1 2 2 1 0 1 2 1 1 1 2 2 1 1 1 1 2 2 2 2 1 0 0 0 0 0 0 0 0 0 0 0 0 0 0 0 0 0 0 0
2 1 0 0 0 0 0 0 0 1 1 1 1 1 2 2 0 0 1 3 3 2 2 2 2 1 1 1 2 1 0 0 0 0 0 0 0 0 0 0 0 0 0 0 0 0 0 0 0
3 2 0 0 0 0 0 0 0 0 0 0 1 3 4 3 2 1 1 4 4 3 3 3 2 1 0 1 1 0 0 0 0 0 0 0 0 0 0 0 0 0 0 0 0 0 0 0 0
2 1 0 0 0 0 0 0 0 0 0 0 1 3 5 6 4 3 3 5 6 4 3 3 2 1 1 1 0 0 0 0 0 0 0 0 0 0 0 0 0 0 1 0 0 0 0 0 0
1 0 0 0 0 0 0 0 0 0 0 0 1 3 6 6 6 6 6 7 7 6 4 2 1 1 0 0 0 0 0 0 0 0 0 0 0 0 0 0 0 0 0 0 0 0 0 0 0
0 0 0 0 0 0 0 0 0 0 0 0 1 3 5 6 7 8 9 9 8 7 4 1 0 0 0 0 0 0 0 0 0 0 0 0 0 0 0 0 0 0 0 0 0 0 0 0 0
0 0 0 0 0 0 0 0 0 0 0 0 2 3 6 7 8 9 10 9 8 6 4 1 0 1 1 1 0 0 0 0 0 0 0 0 0 0 0 0 0 0 0 0 0 0 0 0 0
0 0 0 0 0 0 0 0 0 0 0 0 2 5 6 7 7 7 8 8 7 5 3 1 1 1 2 1 0 0 0 0 0 0 0 0 0 0 0 0 0 1 0 0 0 0 0 0 0
0 0 0 0 0 0 0 0 0 0 0 1 3 5 6 6 6 5 6 7 8 6 4 4 4 3 2 1 0 0 0 0 0 0 0 0 0 0 0 0 0 0 0 0 0 0 0 0 0
0 0 0 0 0 0 0 0 0 0 1 2 3 4 5 6 6 5 6 8 10 8 8 8 7 6 3 1 0 0 0 0 0 0 0 0 0 0 0 0 0 0 0 0 0 0 0 0 0
0 0 0 0 0 0 0 0 0 0 1 2 2 3 4 4 5 6 7 9 10 10 10 10 9 7 5 3 1 0 0 0 0 0 0 0 0 0 0 0 0 0 0 0 0 0 0 0 0
0 0 0 0 0 0 0 0 0 0 1 2 1 2 2 2 4 6 7 7 8 9 9 9 9 9 8 6 3 1 0 1 1 1 0 0 0 0 0 0 0 0 0 0 0 0 0 0 0
0 0 0 0 0 0 0 0 1 0 1 2 2 1 2 2 5 6 6 6 6 7 7 7 8 8 9 7 5 2 0 1 3 2 2 2 1 0 0 0 0 0 0 0 0 0 0 0 0
0 0 0 0 0 0 0 0 0 0 1 2 2 3 3 4 5 6 7 6 6 6 6 6 6 7 8 7 6 4 2 2 3 3 3 3 2 1 1 1 0 0 0 0 0 0 0 0 0
0 0 0 0 0 0 0 0 0 0 1 2 3 4 4 3 3 4 5 5 6 7 7 6 6 6 6 6 5 4 3 3 4 3 3 3 3 3 2 1 0 0 0 0 0 0 0 0 0
0 0 0 0 0 0 0 0 0 1 2 3 3 3 2 2 1 2 3 4 5 7 7 6 6 5 5 4 5 5 4 4 4 3 3 3 3 3 3 1 0 0 0 0 0 0 0 0 0
0 0 0 0 0 0 0 0 0 2 3 3 3 2 1 2 2 2 4 5 5 6 6 6 6 5 4 4 4 5 5 4 4 3 3 4 4 4 3 1 0 0 1 0 0 0 0 0 0
0 0 0 0 0 0 1 0 0 1 3 3 3 2 2 3 5 7 8 7 5 4 5 6 6 6 5 4 3 4 5 5 4 3 4 5 5 5 3 1 0 0 0 0 0 0 0 0 0
0 0 0 0 0 0 0 0 0 1 2 3 3 3 3 6 10 13 14 11 5 3 4 5 6 6 6 5 4 4 4 4 4 4 5 6 5 4 3 2 1 0 0 0 0 0 0 0 0
0 0 0 0 0 0 0 0 0 0 1 3 3 3 4 8 13 16 16 13 7 4 4 4 4 4 4 4 5 4 3 3 3 5 6 5 4 3 3 3 2 1 0 0 0 0 0 0 0
0 0 0 0 0 0 0 0 0 0 1 2 3 3 3 6 12 16 15 13 9 5 4 3 3 3 3 3 4 4 3 3 4 6 6 4 3 3 3 4 3 1 0 0 0 0 0 0 0
0 0 0 0 0 0 0 0 0 0 1 2 3 2 2 5 10 13 13 11 9 6 4 4 4 4 4 3 3 3 3 3 5 6 6 5 4 4 4 5 3 1 0 0 0 0 0 0 0
0 0 0 0 0 0 0 0 0 0 1 2 2 2 2 4 8 11 11 11 10 8 7 6 6 6 6 5 3 2 2 3 4 6 6 5 5 5 5 5 4 2 0 0 0 0 0 0 0
0 0 0 0 0 0 0 0 0 1 1 2 2 2 3 4 6 8 9 10 11 9 8 8 7 6 5 5 4 3 3 3 3 5 5 5 6 6 5 5 5 3 1 0 0 0 0 0 0
0 0 0 0 0 0 0 0 0 1 2 2 2 1 3 5 5 7 10 12 11 9 8 7 6 4 4 4 5 4 3 3 3 4 4 4 6 6 5 4 4 4 2 0 0 0 0 0 0
0 0 0 0 0 0 0 0 0 1 1 2 1 1 3 5 5 8 12 14 12 9 7 6 4 3 3 4 5 4 3 3 3 3 3 4 5 6 4 3 3 3 1 0 0 0 0 0 0
0 0 0 0 0 0 0 0 0 0 0 0 0 1 3 3 4 8 13 15 13 9 7 5 3 2 3 4 5 4 3 2 2 3 2 3 4 4 4 3 3 2 1 0 1 0 0 0 0
0 0 0 0 0 0 0 0 0 0 0 0 0 1 2 3 4 7 12 14 13 10 6 3 1 1 2 4 5 5 3 2 2 2 3 2 2 3 4 3 3 2 1 0 1 0 0 0 0
Wind_Speed
8 9 6 2 2 2 1 4 6 5 6 8 8 8 12 12 9 8 2 4 7 9 10 9 10 11 11 11 11 12 12 12 12 12 12 11 11 11 11 11 11 11 11 11 11 11 11 11 11
9 6 4 2 2 0 3 5 7 7 6 6 7 10 13 11 11 8 4 4 8 10 10 10 10 11 11 12 12 12 12 12 12 12 12 12 11 11 11 10 11 10 11 11 11 11 10 10 10
11 6 3 2 1 1 4 6 7 7 5 5 7 9 9 7 9 6 5 6 9 11 11 10 11 12 12 12 12 12 12 12 12 12 12 12 12 11 11 11 10 10 10 10 10 10 10 10 10
5 2 3 1 1 4 5 5 6 6 5 5 7 9 9 8 7 7 7 8 10 11 11 10 11 12 12 12 12 12 12 13 12 12 12 12 12 11 11 11 10 9 9 10 10 10 10 10 9
3 2 2 1 1 3 5 5 5 4 4 6 9 10 9 9 10 9 7 8 9 10 11 10 12 12 12 12 11 12 12 12 11 12 11 11 11 11 11 11 10 9 9 9 9 10 9 9 8
3 2 2 1 2 3 3 3 3 5 6 6 8 10 7 8 8 6 7 7 8 10 11 10 11 11 12 12 11 11 11 11 11 11 11 11 11 11 11 10 10 10 10 10 9 9 8 8 7
2 1 1 1 2 2 3 3 3 4 4 4 5 8 8 8 6 5 6 7 8 9 9 8 8 9 10 11 11 11 10 10 10 10 9 9 10 10 11 11 10 10 10 9 8 7 7 6 5
3 2 2 2 2 2 2 3 3 4 4 4 4 6 7 9 7 6 6 6 6 7 7 8 8 7 7 7 9 10 9 8 8 7 7 7 8 9 9 9 9 10 9 8 7 7 6 4 3
3 2 1 1 2 3 3 3 3 4 5 5 7 9 11 12 9 7 5 5 5 6 5 6 7 7 7 7 8 7 7 6 5 4 4 4 3 4 5 8 8 8 7 6 5 4 3 3 2
2 1 1 1 2 3 3 3 2 4 4 5 8 11 12 11 8 7 6 6 5 5 4 5 6 6 6 5 5 3 4 3 2 2 3 2 3 3 5 6 6 5 5 3 2 1 1 1 1
2 2 0 2 2 3 3 2 1 3 3 4 7 10 10 9 8 6 6 5 5 5 4 4 4 6 5 3 3 2 2 2 1 2 3 3 3 3 3 2 2 2 2 1 1 1 0 1 2
3 2 1 2 2 1 2 2 1 2 3 5 7 9 9 7 6 5 5 6 5 5 4 4 4 5 5 4 3 2 2 1 2 2 3 3 1 2 2 1 1 1 1 1 1 1 2 3 4
4 3 2 2 2 1 2 2 2 3 5 6 8 8 8 6 6 6 5 6 6 5 4 4 4 4 5 4 2 3 2 2 3 1 2 3 2 2 1 2 2 2 2 2 2 2 3 4 4
3 4 4 4 4 4 3 4 4 4 6 7 7 7 8 6 5 5 5 5 6 5 5 4 3 4 4 4 2 2 2 2 3 1 1 3 2 2 2 3 2 2 2 1 2 3 3 3 3
5 5 6 6 6 5 4 5 5 6 7 7 7 8 8 7 6 5 4 5 6 5 5 4 3 3 4 4 3 3 2 2 2 1 2 3 2 2 2 2 2 1 2 2 3 4 3 3 4
7 7 5 6 7 5 5 4 6 7 7 7 7 7 6 6 6 5 5 5 5 5 6 4 3 3 4 3 3 2 2 2 2 2 2 2 2 3 3 2 1 2 2 2 2 2 2 3 3
6 6 6 6 7 6 6 4 5 7 6 6 6 7 7 7 6 6 6 4 5 5 6 4 3 4 3 3 3 3 3 2 2 2 2 2 2 3 3 2 1 3 2 2 2 3 2 2 2
5 6 5 5 7 7 6 5 5 7 6 6 6 6 7 7 6 5 6 4 4 5 5 5 3 3 4 2 2 2 2 2 2 2 2 3 2 3 3 1 3 3 3 3 3 3 3 2 1
6 5 4 3 5 6 6 6 5 8 6 5 5 6 7 7 7 6 6 5 4 4 5 5 4 3 3 2 2 2 2 1 1 2 2 2 2 3 3 2 3 3 3 2 2 2 2 1 2
7 7 5 2 2 4 5 5 4 6 7 5 4 5 6 7 7 7 7 6 4 4 4 4 4 3 3 2 2 1 2 2 2 2 2 1 2 3 2 3 3 3 2 3 2 2 2 1 1
8 6 5 3 2 5 5 5 5 5 6 6 4 4 5 7 7 7 7 6 4 4 4 4 4 4 3 3 2 2 2 1 1 1 1 1 2 2 2 3 2 2 2 2 2 2 2 1 1
6 4 6 6 5 4 5 4 5 6 7 7 6 4 3 5 6 6 6 6 5 4 3 3 4 4 3 3 2 2 2 2 2 2 2 1 2 2 2 2 2 2 2 2 1 2 2 1 0
5 5 7 8 7 7 7 6 3 6 7 7 6 5 4 5 6 6 6 6 6 5 4 3 4 3 3 3 3 2 2 1 1 2 2 2 2 2 2 2 1 2 2 2 2 2 1 1 1
6 7 8 8 5 8 8 6 3 3 5 7 6 7 6 6 6 6 6 5 5 5 4 3 3 3 3 3 3 2 2 2 2 2 2 1 2 1 2 2 1 1 2 2 2 2 1 1 1
6 5 3 4 5 5 5 4 2 4 5 6 6 6 6 5 6 6 6 6 5 5 5 4 4 3 3 3 2 2 3 2 2 2 2 2 1 1 2 2 2 2 1 1 1 2 1 1 1
7 7 4 3 3 2 2 3 3 5 6 6 5 5 5 5 5 5 6 5 5 5 5 4 4 3 3 3 2 2 2 2 1 2 2 2 2 2 3 2 2 2 2 1 1 0 1 1 1
6 6 5 6 8 6 3 3 4 5 6 6 5 5 4 5 4 5 5 5 5 5 5 4 4 3 3 3 2 2 2 2 2 2 2 2 2 2 3 3 2 2 2 2 2 1 0 1 1
7 5 3 4 4 4 3 3 3 5 5 5 5 4 4 4 3 4 4 5 4 4 5 4 4 4 3 2 2 1 2 2 2 2 2 2 2 2 3 3 3 3 3 2 2 1 1 1 1
7 7 5 4 5 4 3 1 3 4 5 5 4 4 3 3 3 3 3 4 4 4 4 5 4 3 3 2 2 2 2 2 1 2 2 2 2 2 3 3 3 3 3 3 3 2 2 1 1
6 7 6 5 5 5 4 1 2 5 4 3 3 3 4 4 3 3 3 3 3 4 4 4 4 3 3 3 2 2 1 1 2 1 1 1 2 2 2 3 2 2 3 3 3 3 3 2 1
Wind_Direction
256 244 238 250 249 226 84 73 78 68 64 52 51 61 65 51 52 90 123 89 92 95 95 81 72 72 68 65 68 69 71 77 79 80 79 79 78 77 77 79 79 77 76 74 73 73 74 73 75
268 258 258 244 240 244 87 84 79 71 79 75 63 67 75 67 75 98 108 93 95 93 89 80 75 75 71 69 71 71 73 78 79 79 78 77 76 76 75 77 77 76 77 76 75 73 73 74 73
262 262 267 257 277 49 86 86 90 83 80 81 75 61 59 70 80 97 112 105 92 89 88 85 80 78 75 73 72 71 73 75 76 76 77 76 75 75 76 78 78 78 78 78 76 74 75 74 71
255 240 241 249 43 69 91 95 99 98 84 80 87 79 71 61 81 106 116 103 95 94 94 93 87 84 79 76 76 76 75 76 76 76 77 78 77 75 76 78 77 78 80 79 77 78 77 74 69
241 248 227 188 93 70 66 75 92 99 94 83 87 91 84 78 91 106 105 100 100 100 100 102 96 91 85 80 78 80 78 78 78 77 77 80 78 77 77 77 76 77 80 79 78 80 80 76 70
248 242 234 178 126 105 94 78 92 92 89 91 105 104 95 100 97 106 104 102 104 105 106 108 106 99 93 88 86 84 82 80 80 81 80 82 82 80 79 78 78 77 77 78 79 78 82 79 70
257 273 227 184 119 102 84 79 72 90 87 77 95 104 116 109 110 117 109 102 102 106 114 118 118 108 101 97 92 88 87 86 86 86 86 89 89 87 83 79 80 80 79 78 80 81 82 81 74
273 273 225 201 144 115 74 89 82 82 82 73 78 107 129 129 135 123 117 113 115 115 119 127 127 123 117 108 104 101 98 96 97 99 99 98 96 95 93 87 83 85 84 83 84 83 84 86 79
268 253 254 176 146 125 128 115 107 109 102 85 71 94 124 135 139 132 127 120 113 112 120 129 129 128 125 125 119 119 115 111 116 120 122 120 115 113 102 96 95 93 93 92 95 97 100 111 121
208 221 256 41 121 134 133 121 141 138 120 107 98 105 124 138 146 147 140 131 130 128 122 120 129 127 124 123 129 139 128 137 141 125 124 119 98 92 95 107 110 114 119 123 135 151 146 146 154
193 202 353 55 76 111 124 124 127 133 124 126 124 128 137 146 150 151 142 138 133 124 116 116 121 115 116 113 122 113 113 126 110 90 94 93 96 107 110 132 140 150 154 148 131 195 242 87 87
208 216 205 109 91 113 130 136 142 84 106 116 128 137 141 150 148 149 145 139 130 125 121 112 108 111 112 109 115 123 115 110 84 70 83 82 86 95 111 116 107 107 86 65 65 54 57 59 68
203 211 186 138 149 185 168 169 148 130 120 122 132 141 146 159 157 154 150 138 132 132 124 113 110 112 109 104 114 104 99 90 89 57 92 92 74 77 88 82 62 72 68 56 40 43 53 53 52
197 204 187 181 186 202 199 194 186 163 150 149 152 152 158 165 160 149 149 140 137 138 130 119 118 113 118 118 114 98 97 91 83 58 57 90 89 75 78 76 65 58 66 70 74 62 51 56 61
205 206 202 199 202 198 216 217 195 170 166 167 169 164 163 162 154 146 153 145 137 136 128 123 128 117 112 109 103 103 107 106 102 81 58 74 74 73 68 74 64 65 61 55 58 65 54 59 63
213 217 215 201 209 200 226 232 177 163 177 176 174 161 156 149 150 150 152 141 135 130 121 117 121 112 101 106 115 111 95 85 82 66 48 69 76 79 71 68 60 64 58 54 64 67 60 55 56
217 225 211 199 200 196 213 241 176 163 186 181 178 164 163 158 158 152 145 137 135 131 126 126 119 107 103 103 106 98 95 88 82 65 40 42 61 78 79 63 54 65 63 52 56 58 67 68 62
227 229 222 207 188 199 211 230 189 171 195 190 181 172 164 159 158 153 141 141 135 133 129 129 119 114 105 88 93 88 86 85 86 76 47 36 48 62 72 69 66 64 68 52 57 62 56 62 56
268 276 267 231 201 206 226 230 204 176 191 195 183 181 170 162 160 154 144 134 141 138 133 132 133 129 119 108 101 117 121 116 101 101 81 49 57 63 68 59 66 65 75 76 74 81 72 53 59
252 263 260 224 217 243 246 245 233 181 181 182 189 186 173 162 158 154 151 147 159 142 140 140 139 141 127 119 128 129 135 148 128 108 110 92 79 78 75 83 83 79 79 69 65 73 63 37 48
254 256 263 259 271 258 252 249 237 189 171 163 187 185 171 162 156 154 154 152 151 146 147 141 139 139 132 135 123 107 96 91 97 124 120 113 98 90 78 82 96 104 101 99 96 95 91 60 2
264 269 269 266 255 255 236 250 226 182 169 168 173 174 176 156 149 148 149 148 153 137 134 135 142 145 139 137 138 142 139 157 184 161 145 150 122 110 99 91 92 109 104 106 112 102 105 101 18
269 288 268 265 263 270 252 250 215 175 174 171 165 164 175 152 150 153 152 155 150 140 140 147 144 137 134 139 136 152 155 183 160 142 142 155 136 134 137 126 107 108 114 117 99 91 91 112 138
263 265 261 252 250 254 246 239 214 188 172 159 160 160 164 151 147 147 145 149 144 141 142 148 146 140 131 132 140 164 168 176 144 155 163 168 149 166 158 135 129 116 111 121 132 134 134 155 130
245 255 254 234 216 235 222 221 178 121 117 132 140 144 147 145 144 142 142 148 148 148 149 149 138 134 134 143 160 182 176 174 171 178 177 173 164 169 163 142 146 129 128 149 152 152 164 172 157
239 239 249 269 268 284 241 215 121 103 104 110 115 118 127 136 143 146 147 145 151 151 149 149 144 142 144 160 179 191 167 166 181 177 172 189 195 176 155 150 154 148 142 134 110 113 182 146 156
256 244 260 279 285 274 231 169 149 128 121 115 115 114 125 127 133 140 145 145 147 151 149 151 150 153 161 172 186 193 176 177 174 182 191 194 201 172 158 168 173 162 157 155 140 139 133 82 100
261 281 272 251 277 275 261 221 172 145 137 129 122 119 111 114 127 135 142 147 149 149 153 160 163 165 162 164 197 189 187 197 188 182 193 196 196 180 169 182 177 167 162 158 140 140 140 118 95
224 237 245 254 258 272 287 15 68 122 129 131 132 127 122 119 131 136 137 141 146 150 160 168 170 166 164 168 190 204 202 206 205 183 196 192 200 185 176 184 182 171 165 164 158 158 158 156 162
243 251 253 251 267 273 279 285 88 98 98 98 101 129 137 127 127 126 125 134 144 158 168 171 170 171 171 179 191 195 198 216 206 190 189 195 201 186 182 172 173 167 165 167 162 168 161 167 180